START_TIME,STEP,MOV.,M35,t_acc.,PL05,t_acc.,PL06,t_acc.,PL07,t_acc.
1981-08-24 09:02:30.360 ,0,0,,0,,0,,0,,0
1981-08-24 09:02:35.160 ,0,0,0.,4.8,0.,4.8,0.,4.8,0.,4.8
1981-08-24 09:02:39.960 ,0,0,0.,4.8,0.,4.8,0.,4.8,0.,4.8
1981-08-24 09:02:44.760 ,0,0,0.,4.8,2.,4.8,0.,4.8,0.,4.8
1981-08-24 09:02:49.570 ,0,0,0.,4.8,3.,4.8,0.,4.8,0.,4.8
1981-08-24 09:02:48.960 ,1,0,0.,4.8,1.,4.8,0.,4.8,1.,4.8
1981-08-24 09:02:53.770 ,1,0,0.,4.8,0.,4.8,1.,4.8,0.,4.8
1981-08-24 09:02:58.570 ,1,0,0.,4.8,4.,4.8,1.,4.8,1.,4.8
1981-08-24 09:03:03.370 ,1,0,0.,4.8,2.,4.8,0.,4.8,0.,4.8
1981-08-24 09:03:08.170 ,1,0,0.,4.8,2.,4.8,0.,4.8,0.,4.8
1981-08-24 09:03:12.960 ,2,0,0.,4.8,1.,4.8,0.,4.8,1.,4.8
1981-08-24 09:03:17.760 ,2,0,0.,4.8,3.,4.8,1.,4.8,0.,4.8
1981-08-24 09:03:22.570 ,2,0,0.,4.8,1.,4.8,0.,4.8,0.,4.8
1981-08-24 09:03:27.370 ,2,0,0.,4.8,1.,4.8,0.,4.8,1.,4.8
1981-08-24 09:03:32.170 ,2,0,0.,4.8,2.,4.8,0.,4.8,0.,4.8
1981-08-24 09:03:36.970 ,3,0,0.,4.8,0.,4.8,1.,4.8,0.,4.8
1981-08-24 09:03:41.770 ,3,0,0.,4.8,2.,4.8,0.,4.8,0.,4.8
1981-08-24 09:03:46.570 ,3,0,0.,4.8,2.,4.8,0.,4.8,0.,4.8
1981-08-24 09:03:51.370 ,3,0,0.,4.8,0.,4.8,0.,4.8,0.,4.8
1981-08-24 09:03:56.170 ,3,0,0.,4.8,2.,4.8,0.,4.8,0.,4.8
1981-08-24 09:04:00.970 ,4,0,0.,4.8,1.,4.8,0.,4.8,0.,4.8
1981-08-24 09:04:05.760 ,4,0,0.,4.8,1.,4.8,0.,4.8,0.,4.8
1981-08-24 09:04:10.570 ,4,0,0.,4.8,1.,4.8,0.,4.8,0.,4.8
1981-08-24 09:04:15.370 ,4,0,0.,4.8,1.,4.8,1.,4.8,0.,4.8
1981-08-24 09:04:20.170 ,4,0,0.,4.8,2.,4.8,0.,4.8,0.,4.8
1981-08-24 09:04:24.960 ,5,0,0.,4.8,1.,4.8,2.,4.8,0.,4.8
1981-08-24 09:04:29.770 ,5,0,0.,4.8,3.,4.8,0.,4.8,0.,4.8
1981-08-24 09:04:34.570 ,5,0,0.,4.8,0.,4.8,0.,4.8,1.,4.8
1981-08-24 09:04:39.370 ,5,0,0.,4.8,1.,4.8,0.,4.8,0.,4.8
1981-08-24 09:04:44.170 ,5,0,0.,4.8,0.,4.8,0.,4.8,0.,4.8
1981-08-24 09:04:48.960 ,6,0,0.,4.8,0.,4.8,0.,4.8,0.,4.8
1981-08-24 09:04:53.770 ,6,0,0.,4.8,2.,4.8,1.,4.8,0.,4.8
1981-08-24 09:04:58.570 ,6,0,0.,4.8,0.,4.8,1.,4.8,0.,4.8
1981-08-24 09:05:03.370 ,6,0,0.,4.8,3.,4.8,3.,4.8,0.,4.8
1981-08-24 09:05:08.170 ,6,0,0.,4.8,0.,4.8,0.,4.8,0.,4.8
1981-08-24 09:05:12.960 ,7,0,0.,4.8,5.,4.8,0.,4.8,0.,4.8
1981-08-24 09:05:17.770 ,7,0,0.,4.8,1.,4.8,0.,4.8,0.,4.8
1981-08-24 09:05:22.570 ,7,0,0.,4.8,0.,4.8,0.,4.8,0.,4.8
1981-08-24 09:05:27.370 ,7,0,0.,4.8,0.,4.8,0.,4.8,0.,4.8
1981-08-24 09:05:32.170 ,7,0,0.,4.8,0.,4.8,0.,4.8,0.,4.8
1981-08-24 09:05:36.960 ,7,0,0.,4.8,0.,4.8,0.,4.8,0.,4.8
1981-08-24 09:05:41.770 ,7,0,0.,4.8,0.,4.8,0.,4.8,0.,4.8
1981-08-24 09:05:46.570 ,7,0,0.,4.8,1.,4.8,0.,4.8,0.,4.8
1981-08-24 09:05:51.370 ,7,0,0.,4.8,0.,4.8,0.,4.8,1.,4.8
1981-08-24 09:05:56.170 ,7,0,0.,4.8,1.,4.8,1.,4.8,1.,4.8
1981-08-24 09:06:00.960 ,7,0,0.,4.8,1.,4.8,0.,4.8,0.,4.8
1981-08-24 09:06:05.770 ,7,0,0.,4.8,0.,4.8,0.,4.8,1.,4.8
1981-08-24 09:06:10.570 ,7,0,0.,4.8,1.,4.8,0.,4.8,0.,4.8
1981-08-24 09:06:15.370 ,7,0,0.,4.8,0.,4.8,0.,4.8,0.,4.8
1981-08-24 09:06:20.170 ,7,0,0.,4.8,0.,4.8,1.,4.8,0.,4.8
1981-08-24 09:06:24.960 ,6,0,0.,4.8,0.,4.8,0.,4.8,0.,4.8
1981-08-24 09:06:29.760 ,6,0,0.,4.8,0.,4.8,0.,4.8,0.,4.8
1981-08-24 09:06:34.560 ,6,0,0.,4.8,0.,4.8,0.,4.8,0.,4.8
1981-08-24 09:06:39.360 ,6,0,0.,4.8,1.,4.8,0.,4.8,0.,4.8
1981-08-24 09:06:44.160 ,6,0,0.,4.8,0.,4.8,0.,4.8,0.,4.8
1981-08-24 09:06:48.960 ,6,0,0.,4.8,2.,4.8,2.,4.8,0.,4.8
1981-08-24 09:06:53.760 ,6,0,0.,4.8,2.,4.8,0.,4.8,0.,4.8
1981-08-24 09:06:58.560 ,6,0,0.,4.8,0.,4.8,0.,4.8,0.,4.8
1981-08-24 09:07:03.360 ,6,0,0.,4.8,0.,4.8,0.,4.8,1.,4.8
1981-08-24 09:07:08.160 ,6,0,0.,4.8,1.,4.8,0.,4.8,0.,4.8
1981-08-24 09:07:12.960 ,5,0,0.,4.8,4.,4.8,1.,4.8,0.,4.8
1981-08-24 09:07:17.760 ,5,0,0.,4.8,5.,4.8,0.,4.8,0.,4.8
1981-08-24 09:07:22.560 ,5,0,0.,4.8,1.,4.8,1.,4.8,0.,4.8
1981-08-24 09:07:27.360 ,5,0,0.,4.8,1.,4.8,0.,4.8,0.,4.8
1981-08-24 09:07:32.160 ,5,0,0.,4.8,4.,4.8,0.,4.8,0.,4.8
1981-08-24 09:07:36.960 ,5,0,0.,4.8,6.,4.8,0.,4.8,0.,4.8
1981-08-24 09:07:41.760 ,5,0,0.,4.8,1.,4.8,0.,4.8,0.,4.8
1981-08-24 09:07:46.560 ,5,0,0.,4.8,3.,4.8,1.,4.8,0.,4.8
1981-08-24 09:07:51.360 ,5,0,0.,4.8,2.,4.8,0.,4.8,0.,4.8
1981-08-24 09:07:56.160 ,5,0,0.,4.8,1.,4.8,0.,4.8,0.,4.8
1981-08-24 09:08:00.960 ,4,0,0.,4.8,2.,4.8,0.,4.8,0.,4.8
1981-08-24 09:08:05.760 ,4,0,0.,4.8,1.,4.8,0.,4.8,0.,4.8
1981-08-24 09:08:10.560 ,4,0,0.,4.8,0.,4.8,1.,4.8,0.,4.8
1981-08-24 09:08:15.360 ,4,0,0.,4.8,2.,4.8,1.,4.8,0.,4.8
1981-08-24 09:08:20.160 ,4,0,0.,4.8,1.,4.8,0.,4.8,1.,4.8
1981-08-24 09:08:24.960 ,4,0,0.,4.8,1.,4.8,0.,4.8,0.,4.8
1981-08-24 09:08:29.760 ,4,0,0.,4.8,2.,4.8,0.,4.8,0.,4.8
1981-08-24 09:08:34.560 ,4,0,0.,4.8,1.,4.8,0.,4.8,0.,4.8
1981-08-24 09:08:39.360 ,4,0,0.,4.8,1.,4.8,1.,4.8,0.,4.8
1981-08-24 09:08:44.160 ,4,0,0.,4.8,0.,4.8,0.,4.8,1.,4.8
1981-08-24 09:08:48.960 ,3,0,0.,4.8,0.,4.8,0.,4.8,1.,4.8
1981-08-24 09:08:53.760 ,3,0,0.,4.8,1.,4.8,0.,4.8,0.,4.8
1981-08-24 09:08:58.560 ,3,0,0.,4.8,2.,4.8,0.,4.8,0.,4.8
1981-08-24 09:09:03.360 ,3,0,0.,4.8,1.,4.8,0.,4.8,0.,4.8
1981-08-24 09:09:08.160 ,3,0,0.,4.8,1.,4.8,1.,4.8,0.,4.8
1981-08-24 09:09:12.960 ,3,0,0.,4.8,2.,4.8,0.,4.8,0.,4.8
1981-08-24 09:09:17.760 ,3,0,0.,4.8,0.,4.8,0.,4.8,0.,4.8
1981-08-24 09:09:22.560 ,3,0,0.,4.8,3.,4.8,0.,4.8,0.,4.8
1981-08-24 09:09:27.360 ,3,0,0.,4.8,0.,4.8,0.,4.8,0.,4.8
1981-08-24 09:09:32.160 ,3,0,0.,4.8,1.,4.8,0.,4.8,0.,4.8
1981-08-24 09:09:36.960 ,2,0,0.,4.8,1.,4.8,1.,4.8,0.,4.8
1981-08-24 09:09:41.760 ,2,0,0.,4.8,1.,4.8,0.,4.8,0.,4.8
1981-08-24 09:09:46.560 ,2,0,0.,4.8,0.,4.8,0.,4.8,0.,4.8
1981-08-24 09:09:51.360 ,2,0,0.,4.8,1.,4.8,1.,4.8,0.,4.8
1981-08-24 09:09:56.160 ,2,0,0.,4.8,1.,4.8,1.,4.8,0.,4.8
1981-08-24 09:10:00.960 ,2,0,0.,4.8,0.,4.8,0.,4.8,0.,4.8
1981-08-24 09:10:05.760 ,2,0,0.,4.8,0.,4.8,0.,4.8,0.,4.8
1981-08-24 09:10:10.560 ,2,0,0.,4.8,0.,4.8,0.,4.8,0.,4.8
1981-08-24 09:10:15.360 ,2,0,0.,4.8,0.,4.8,0.,4.8,0.,4.8
1981-08-24 09:10:20.160 ,2,0,0.,4.8,1.,4.8,0.,4.8,0.,4.8
1981-08-24 09:10:24.960 ,1,0,0.,4.8,2.,4.8,0.,4.8,1.,4.8
1981-08-24 09:10:29.760 ,1,0,0.,4.8,0.,4.8,0.,4.8,0.,4.8
1981-08-24 09:10:34.560 ,1,0,0.,4.8,1.,4.8,1.,4.8,1.,4.8
1981-08-24 09:10:39.360 ,1,0,0.,4.8,1.,4.8,0.,4.8,0.,4.8
1981-08-24 09:10:44.160 ,1,0,0.,4.8,2.,4.8,0.,4.8,0.,4.8
1981-08-24 09:10:48.960 ,1,0,0.,4.8,1.,4.8,0.,4.8,0.,4.8
1981-08-24 09:10:53.760 ,1,0,0.,4.8,1.,4.8,1.,4.8,0.,4.8
1981-08-24 09:10:58.560 ,1,0,0.,4.8,0.,4.8,0.,4.8,1.,4.8
1981-08-24 09:11:03.360 ,1,0,0.,4.8,3.,4.8,0.,4.8,0.,4.8
1981-08-24 09:11:08.160 ,1,0,0.,4.8,1.,4.8,0.,4.8,0.,4.8
1981-08-24 09:11:12.960 ,0,0,0.,4.8,2.,4.8,1.,4.8,0.,4.8
1981-08-24 09:11:17.760 ,0,0,0.,4.8,1.,4.8,0.,4.8,0.,4.8
1981-08-24 09:11:22.560 ,0,0,0.,4.8,0.,4.8,0.,4.8,0.,4.8
1981-08-24 09:11:27.360 ,0,0,0.,4.8,2.,4.8,0.,4.8,0.,4.8
1981-08-24 09:11:32.160 ,0,0,0.,4.8,1.,4.8,0.,4.8,0.,4.8
1981-08-24 09:11:36.960 ,0,0,0.,4.8,3.,4.8,0.,4.8,0.,4.8
1981-08-24 09:11:41.760 ,0,0,0.,4.8,1.,4.8,1.,4.8,0.,4.8
1981-08-24 09:11:46.560 ,0,0,0.,4.8,1.,4.8,1.,4.8,0.,4.8
1981-08-24 09:11:51.360 ,0,0,0.,4.8,2.,4.8,0.,4.8,0.,4.8
1981-08-24 09:11:56.160 ,0,0,0.,4.8,2.,4.8,0.,4.8,0.,4.8
1981-08-24 09:12:00.960 ,0,0,0.,4.8,1.,4.8,0.,4.8,0.,4.8
1981-08-24 09:12:05.760 ,0,0,0.,4.8,1.,4.8,2.,4.8,0.,4.8
1981-08-24 09:12:10.560 ,0,0,0.,4.8,1.,4.8,0.,4.8,0.,4.8
1981-08-24 09:12:15.360 ,0,0,0.,4.8,1.,4.8,1.,4.8,1.,4.8
1981-08-24 09:12:20.160 ,0,0,0.,4.8,1.,4.8,0.,4.8,0.,4.8
1981-08-24 09:12:24.960 ,0,0,0.,4.8,2.,4.8,1.,4.8,0.,4.8
1981-08-24 09:12:29.760 ,0,0,0.,4.8,3.,4.8,1.,4.8,0.,4.8
1981-08-24 09:12:34.560 ,0,0,0.,4.8,0.,4.8,1.,4.8,1.,4.8
1981-08-24 09:12:39.360 ,0,0,0.,4.8,2.,4.8,0.,4.8,0.,4.8
1981-08-24 09:12:44.160 ,0,0,0.,4.8,0.,4.8,0.,4.8,0.,4.8
1981-08-24 09:12:48.960 ,1,0,0.,4.8,0.,4.8,0.,4.8,1.,4.8
1981-08-24 09:12:53.760 ,1,0,0.,4.8,2.,4.8,0.,4.8,0.,4.8
1981-08-24 09:12:58.560 ,1,0,0.,4.8,2.,4.8,0.,4.8,0.,4.8
1981-08-24 09:13:03.360 ,1,0,0.,4.8,0.,4.8,0.,4.8,0.,4.8
1981-08-24 09:13:08.160 ,1,0,0.,4.8,2.,4.8,1.,4.8,0.,4.8
1981-08-24 09:13:12.960 ,1,0,0.,4.8,1.,4.8,0.,4.8,1.,4.8
1981-08-24 09:13:17.760 ,1,0,0.,4.8,3.,4.8,0.,4.8,0.,4.8
1981-08-24 09:13:22.560 ,1,0,0.,4.8,2.,4.8,1.,4.8,1.,4.8
1981-08-24 09:13:27.360 ,1,0,0.,4.8,1.,4.8,0.,4.8,0.,4.8
1981-08-24 09:13:32.160 ,1,0,0.,4.8,1.,4.8,0.,4.8,0.,4.8
1981-08-24 09:13:36.960 ,2,0,0.,4.8,0.,4.8,0.,4.8,0.,4.8
1981-08-24 09:13:41.760 ,2,0,0.,4.8,0.,4.8,0.,4.8,0.,4.8
1981-08-24 09:13:46.560 ,2,0,0.,4.8,2.,4.8,1.,4.8,0.,4.8
1981-08-24 09:13:51.360 ,2,0,0.,4.8,0.,4.8,1.,4.8,0.,4.8
1981-08-24 09:13:56.160 ,2,0,0.,4.8,2.,4.8,0.,4.8,0.,4.8
1981-08-24 09:14:00.960 ,2,0,0.,4.8,3.,4.8,0.,4.8,0.,4.8
1981-08-24 09:14:05.760 ,2,0,0.,4.8,2.,4.8,1.,4.8,0.,4.8
1981-08-24 09:14:10.560 ,2,0,0.,4.8,2.,4.8,0.,4.8,0.,4.8
1981-08-24 09:14:15.360 ,2,0,0.,4.8,1.,4.8,3.,4.8,0.,4.8
1981-08-24 09:14:20.160 ,2,0,0.,4.8,0.,4.8,1.,4.8,0.,4.8
1981-08-24 09:14:24.960 ,3,0,0.,4.8,2.,4.8,0.,4.8,0.,4.8
1981-08-24 09:14:29.760 ,3,0,0.,4.8,0.,4.8,0.,4.8,0.,4.8
1981-08-24 09:14:34.560 ,3,0,0.,4.8,1.,4.8,0.,4.8,0.,4.8
1981-08-24 09:14:39.360 ,3,0,0.,4.8,0.,4.8,0.,4.8,0.,4.8
1981-08-24 09:14:44.160 ,3,0,0.,4.8,0.,4.8,0.,4.8,0.,4.8
1981-08-24 09:14:48.960 ,3,0,0.,4.8,1.,4.8,0.,4.8,0.,4.8
1981-08-24 09:14:53.760 ,3,0,0.,4.8,1.,4.8,0.,4.8,0.,4.8
1981-08-24 09:14:58.560 ,3,0,0.,4.8,1.,4.8,0.,4.8,0.,4.8
1981-08-24 09:15:03.360 ,3,0,0.,4.8,0.,4.8,0.,4.8,0.,4.8
1981-08-24 09:15:08.160 ,3,0,0.,4.8,0.,4.8,0.,4.8,0.,4.8
1981-08-24 09:15:12.960 ,4,0,0.,4.8,1.,4.8,0.,4.8,0.,4.8
1981-08-24 09:15:17.760 ,4,0,0.,4.8,0.,4.8,0.,4.8,0.,4.8
1981-08-24 09:15:22.560 ,4,0,0.,4.8,0.,4.8,0.,4.8,0.,4.8
1981-08-24 09:15:27.360 ,4,0,0.,4.8,0.,4.8,0.,4.8,0.,4.8
1981-08-24 09:15:32.160 ,4,0,0.,4.8,2.,4.8,0.,4.8,0.,4.8
1981-08-24 09:15:36.960 ,4,0,0.,4.8,0.,4.8,0.,4.8,0.,4.8
1981-08-24 09:15:41.760 ,4,0,0.,4.8,1.,4.8,2.,4.8,0.,4.8
1981-08-24 09:15:46.560 ,4,0,0.,4.8,0.,4.8,0.,4.8,0.,4.8
1981-08-24 09:15:51.360 ,4,0,0.,4.8,0.,4.8,0.,4.8,0.,4.8
1981-08-24 09:15:56.160 ,4,0,0.,4.8,0.,4.8,0.,4.8,0.,4.8
1981-08-24 09:16:00.960 ,5,0,0.,4.8,1.,4.8,0.,4.8,0.,4.8
1981-08-24 09:16:05.760 ,5,0,0.,4.8,1.,4.8,0.,4.8,0.,4.8
1981-08-24 09:16:10.560 ,5,0,0.,4.8,3.,4.8,0.,4.8,0.,4.8
1981-08-24 09:16:15.360 ,5,0,0.,4.8,0.,4.8,1.,4.8,0.,4.8
1981-08-24 09:16:20.160 ,5,0,0.,4.8,1.,4.8,0.,4.8,0.,4.8
1981-08-24 09:16:24.960 ,5,0,0.,4.8,2.,4.8,0.,4.8,0.,4.8
1981-08-24 09:16:29.760 ,5,0,0.,4.8,3.,4.8,1.,4.8,0.,4.8
1981-08-24 09:16:34.560 ,5,0,0.,4.8,1.,4.8,0.,4.8,1.,4.8
1981-08-24 09:16:39.360 ,5,0,0.,4.8,1.,4.8,1.,4.8,0.,4.8
1981-08-24 09:16:44.160 ,5,0,0.,4.8,1.,4.8,0.,4.8,0.,4.8
1981-08-24 09:16:48.960 ,6,0,0.,4.8,2.,4.8,0.,4.8,0.,4.8
1981-08-24 09:16:53.760 ,6,0,0.,4.8,2.,4.8,1.,4.8,1.,4.8
1981-08-24 09:16:58.560 ,6,0,0.,4.8,1.,4.8,0.,4.8,0.,4.8
1981-08-24 09:17:03.360 ,6,0,0.,4.8,2.,4.8,0.,4.8,0.,4.8
1981-08-24 09:17:08.160 ,6,0,0.,4.8,0.,4.8,0.,4.8,0.,4.8
1981-08-24 09:17:12.960 ,6,0,0.,4.8,3.,4.8,2.,4.8,0.,4.8
1981-08-24 09:17:17.760 ,6,0,0.,4.8,1.,4.8,0.,4.8,0.,4.8
1981-08-24 09:17:22.560 ,6,0,0.,4.8,2.,4.8,2.,4.8,0.,4.8
1981-08-24 09:17:27.360 ,6,0,0.,4.8,3.,4.8,0.,4.8,0.,4.8
1981-08-24 09:17:32.160 ,6,0,0.,4.8,1.,4.8,0.,4.8,0.,4.8
1981-08-24 09:17:36.960 ,7,0,0.,4.8,2.,4.8,0.,4.8,0.,4.8
1981-08-24 09:17:41.760 ,7,0,0.,4.8,2.,4.8,0.,4.8,0.,4.8
1981-08-24 09:17:46.560 ,7,0,0.,4.8,1.,4.8,0.,4.8,0.,4.8
1981-08-24 09:17:51.360 ,7,0,0.,4.8,0.,4.8,0.,4.8,0.,4.8
1981-08-24 09:17:56.160 ,7,0,0.,4.8,0.,4.8,0.,4.8,0.,4.8
1981-08-24 09:18:00.960 ,7,0,0.,4.8,0.,4.8,0.,4.8,0.,4.8
1981-08-24 09:18:05.760 ,7,0,0.,4.8,1.,4.8,0.,4.8,0.,4.8
1981-08-24 09:18:10.560 ,7,0,0.,4.8,0.,4.8,0.,4.8,0.,4.8
1981-08-24 09:18:15.360 ,7,0,0.,4.8,0.,4.8,0.,4.8,0.,4.8
1981-08-24 09:18:20.160 ,7,0,0.,4.8,0.,4.8,0.,4.8,0.,4.8
1981-08-24 09:18:24.960 ,7,0,0.,4.8,0.,4.8,0.,4.8,0.,4.8
1981-08-24 09:18:29.760 ,7,0,0.,4.8,0.,4.8,0.,4.8,0.,4.8
1981-08-24 09:18:34.560 ,7,0,0.,4.8,0.,4.8,0.,4.8,0.,4.8
1981-08-24 09:18:39.360 ,7,0,0.,4.8,0.,4.8,0.,4.8,0.,4.8
1981-08-24 09:18:44.160 ,7,0,0.,4.8,1.,4.8,0.,4.8,0.,4.8
1981-08-24 09:18:48.960 ,6,0,0.,4.8,0.,4.8,0.,4.8,0.,4.8
1981-08-24 09:18:53.760 ,6,0,0.,4.8,2.,4.8,0.,4.8,0.,4.8
1981-08-24 09:18:58.560 ,6,0,0.,4.8,2.,4.8,0.,4.8,0.,4.8
1981-08-24 09:19:03.360 ,6,0,0.,4.8,2.,4.8,0.,4.8,1.,4.8
1981-08-24 09:19:08.160 ,6,0,0.,4.8,1.,4.8,0.,4.8,0.,4.8
1981-08-24 09:19:12.960 ,5,0,0.,4.8,0.,4.8,0.,4.8,0.,4.8
1981-08-24 09:19:17.760 ,5,0,0.,4.8,2.,4.8,0.,4.8,0.,4.8
1981-08-24 09:19:22.560 ,5,0,0.,4.8,3.,4.8,1.,4.8,0.,4.8
1981-08-24 09:19:27.360 ,5,0,0.,4.8,1.,4.8,1.,4.8,0.,4.8
1981-08-24 09:19:32.160 ,5,0,0.,4.8,2.,4.8,0.,4.8,0.,4.8
1981-08-24 09:19:36.960 ,4,0,0.,4.8,1.,4.8,0.,4.8,1.,4.8
1981-08-24 09:19:41.760 ,4,0,0.,4.8,0.,4.8,0.,4.8,0.,4.8
1981-08-24 09:19:46.560 ,4,0,0.,4.8,1.,4.8,1.,4.8,0.,4.8
1981-08-24 09:19:51.360 ,4,0,0.,4.8,0.,4.8,1.,4.8,0.,4.8
1981-08-24 09:19:56.160 ,4,0,0.,4.8,0.,4.8,0.,4.8,0.,4.8
1981-08-24 09:20:00.960 ,3,0,0.,4.8,0.,4.8,0.,4.8,0.,4.8
1981-08-24 09:20:05.760 ,3,0,0.,4.8,0.,4.8,0.,4.8,0.,4.8
1981-08-24 09:20:10.560 ,3,0,0.,4.8,0.,4.8,0.,4.8,0.,4.8
1981-08-24 09:20:15.360 ,3,0,0.,4.8,1.,4.8,0.,4.8,0.,4.8
1981-08-24 09:20:20.160 ,3,0,0.,4.8,2.,4.8,0.,4.8,0.,4.8
1981-08-24 09:20:24.960 ,2,0,0.,4.8,2.,4.8,1.,4.8,1.,4.8
1981-08-24 09:20:29.760 ,2,0,0.,4.8,1.,4.8,0.,4.8,1.,4.8
1981-08-24 09:20:34.560 ,2,0,0.,4.8,1.,4.8,0.,4.8,1.,4.8
1981-08-24 09:20:39.360 ,2,0,0.,4.8,2.,4.8,0.,4.8,0.,4.8
1981-08-24 09:20:44.160 ,2,0,0.,4.8,1.,4.8,0.,4.8,0.,4.8
1981-08-24 09:20:48.960 ,1,0,0.,4.8,2.,4.8,0.,4.8,0.,4.8
1981-08-24 09:20:53.760 ,1,0,0.,4.8,2.,4.8,0.,4.8,0.,4.8
1981-08-24 09:20:58.560 ,1,0,0.,4.8,1.,4.8,0.,4.8,0.,4.8
1981-08-24 09:21:03.360 ,1,0,0.,4.8,0.,4.8,1.,4.8,0.,4.8
1981-08-24 09:21:08.160 ,1,0,0.,4.8,2.,4.8,0.,4.8,0.,4.8
1981-08-24 09:21:12.960 ,0,0,0.,4.8,2.,4.8,0.,4.8,0.,4.8
1981-08-24 09:21:17.760 ,0,0,0.,4.8,2.,4.8,0.,4.8,0.,4.8
1981-08-24 09:21:22.560 ,0,0,0.,4.8,4.,4.8,1.,4.8,0.,4.8
1981-08-24 09:21:27.360 ,0,0,0.,4.8,0.,4.8,0.,4.8,0.,4.8
1981-08-24 09:21:32.160 ,0,0,0.,4.8,0.,4.8,1.,4.8,0.,4.8
1981-08-24 09:21:36.960 ,0,0,0.,4.8,0.,4.8,0.,4.8,0.,4.8
1981-08-24 09:21:41.760 ,0,0,0.,4.8,2.,4.8,1.,4.8,0.,4.8
1981-08-24 09:21:46.560 ,0,0,0.,4.8,0.,4.8,0.,4.8,0.,4.8
1981-08-24 09:21:51.360 ,0,0,0.,4.8,0.,4.8,1.,4.8,0.,4.8
1981-08-24 09:21:56.160 ,0,0,0.,4.8,3.,4.8,0.,4.8,0.,4.8
1981-08-24 09:22:00.960 ,1,0,0.,4.8,2.,4.8,1.,4.8,0.,4.8
1981-08-24 09:22:05.760 ,1,0,0.,4.8,0.,4.8,0.,4.8,0.,4.8
1981-08-24 09:22:10.560 ,1,0,0.,4.8,1.,4.8,0.,4.8,0.,4.8
1981-08-24 09:22:15.360 ,1,0,0.,4.8,0.,4.8,0.,4.8,0.,4.8
1981-08-24 09:22:20.160 ,1,0,0.,4.8,0.,4.8,1.,4.8,0.,4.8
1981-08-24 09:22:24.960 ,2,0,0.,4.8,1.,4.8,1.,4.8,0.,4.8
1981-08-24 09:22:29.760 ,2,0,0.,4.8,1.,4.8,0.,4.8,0.,4.8
1981-08-24 09:22:34.560 ,2,0,0.,4.8,1.,4.8,0.,4.8,0.,4.8
1981-08-24 09:22:39.360 ,2,0,0.,4.8,2.,4.8,0.,4.8,0.,4.8
1981-08-24 09:22:44.160 ,2,0,0.,4.8,0.,4.8,0.,4.8,0.,4.8
1981-08-24 09:22:48.960 ,3,0,0.,4.8,0.,4.8,1.,4.8,0.,4.8
1981-08-24 09:22:53.760 ,3,0,0.,4.8,0.,4.8,0.,4.8,0.,4.8
1981-08-24 09:22:58.560 ,3,0,0.,4.8,0.,4.8,0.,4.8,0.,4.8
1981-08-24 09:23:03.360 ,3,0,0.,4.8,0.,4.8,0.,4.8,0.,4.8
1981-08-24 09:23:08.160 ,3,0,0.,4.8,0.,4.8,0.,4.8,0.,4.8
1981-08-24 09:23:12.960 ,4,0,0.,4.8,3.,4.8,0.,4.8,0.,4.8
1981-08-24 09:23:17.760 ,4,0,0.,4.8,1.,4.8,0.,4.8,0.,4.8
1981-08-24 09:23:22.560 ,4,0,0.,4.8,1.,4.8,0.,4.8,0.,4.8
1981-08-24 09:23:27.360 ,4,0,0.,4.8,0.,4.8,0.,4.8,1.,4.8
1981-08-24 09:23:32.160 ,4,0,0.,4.8,0.,4.8,0.,4.8,0.,4.8
1981-08-24 09:23:36.960 ,5,0,0.,4.8,0.,4.8,0.,4.8,0.,4.8
1981-08-24 09:23:41.760 ,5,0,0.,4.8,0.,4.8,0.,4.8,0.,4.8
1981-08-24 09:23:46.560 ,5,0,0.,4.8,0.,4.8,0.,4.8,0.,4.8
1981-08-24 09:23:51.360 ,5,0,0.,4.8,1.,4.8,0.,4.8,0.,4.8
1981-08-24 09:23:56.160 ,5,0,0.,4.8,2.,4.8,0.,4.8,0.,4.8
1981-08-24 09:24:00.960 ,6,0,0.,4.8,2.,4.8,1.,4.8,0.,4.8
1981-08-24 09:24:05.760 ,6,0,0.,4.8,0.,4.8,1.,4.8,0.,4.8
1981-08-24 09:24:10.560 ,6,0,0.,4.8,2.,4.8,0.,4.8,0.,4.8
1981-08-24 09:24:15.360 ,6,0,0.,4.8,3.,4.8,0.,4.8,0.,4.8
1981-08-24 09:24:20.160 ,6,0,0.,4.8,1.,4.8,1.,4.8,0.,4.8
1981-08-24 09:24:24.960 ,7,0,0.,4.8,0.,4.8,0.,4.8,0.,4.8
1981-08-24 09:24:29.760 ,7,0,0.,4.8,1.,4.8,2.,4.8,0.,4.8
1981-08-24 09:24:34.560 ,7,0,0.,4.8,0.,4.8,0.,4.8,0.,4.8
1981-08-24 09:24:39.360 ,7,0,0.,4.8,1.,4.8,0.,4.8,1.,4.8
1981-08-24 09:24:44.160 ,7,0,0.,4.8,0.,4.8,0.,4.8,0.,4.8
1981-08-24 09:24:48.960 ,7,0,0.,4.8,0.,4.8,0.,4.8,0.,4.8
1981-08-24 09:24:53.760 ,7,0,0.,4.8,0.,4.8,0.,4.8,0.,4.8
1981-08-24 09:24:58.560 ,7,0,0.,4.8,1.,4.8,1.,4.8,0.,4.8
1981-08-24 09:25:03.360 ,7,0,0.,4.8,1.,4.8,0.,4.8,0.,4.8
1981-08-24 09:25:08.160 ,7,0,0.,4.8,1.,4.8,0.,4.8,0.,4.8
1981-08-24 09:25:12.960 ,7,0,0.,4.8,0.,4.8,0.,4.8,0.,4.8
1981-08-24 09:25:17.760 ,7,0,0.,4.8,0.,4.8,0.,4.8,0.,4.8
1981-08-24 09:25:22.560 ,7,0,0.,4.8,1.,4.8,0.,4.8,0.,4.8
1981-08-24 09:25:27.360 ,7,0,0.,4.8,0.,4.8,0.,4.8,0.,4.8
1981-08-24 09:25:32.160 ,7,0,0.,4.8,1.,4.8,0.,4.8,0.,4.8
1981-08-24 09:25:36.960 ,6,0,0.,4.8,0.,4.8,0.,4.8,0.,4.8
1981-08-24 09:25:41.760 ,6,0,0.,4.8,0.,4.8,0.,4.8,0.,4.8
1981-08-24 09:25:46.560 ,6,0,0.,4.8,0.,4.8,3.,4.8,0.,4.8
1981-08-24 09:25:51.360 ,6,0,0.,4.8,1.,4.8,1.,4.8,0.,4.8
1981-08-24 09:25:56.160 ,6,0,0.,4.8,2.,4.8,0.,4.8,0.,4.8
1981-08-24 09:26:00.960 ,6,0,0.,4.8,1.,4.8,0.,4.8,0.,4.8
1981-08-24 09:26:05.760 ,6,0,0.,4.8,0.,4.8,0.,4.8,0.,4.8
1981-08-24 09:26:10.560 ,6,0,0.,4.8,2.,4.8,2.,4.8,1.,4.8
1981-08-24 09:26:15.360 ,6,0,0.,4.8,1.,4.8,0.,4.8,0.,4.8
1981-08-24 09:26:20.160 ,6,0,0.,4.8,0.,4.8,0.,4.8,1.,4.8
1981-08-24 09:26:24.960 ,5,0,0.,4.8,1.,4.8,0.,4.8,0.,4.8
1981-08-24 09:26:29.760 ,5,0,0.,4.8,0.,4.8,0.,4.8,0.,4.8
1981-08-24 09:26:34.560 ,5,0,0.,4.8,1.,4.8,0.,4.8,0.,4.8
1981-08-24 09:26:39.360 ,5,0,0.,4.8,3.,4.8,0.,4.8,0.,4.8
1981-08-24 09:26:44.160 ,5,0,0.,4.8,1.,4.8,0.,4.8,0.,4.8
1981-08-24 09:26:48.960 ,5,0,0.,4.8,2.,4.8,1.,4.8,0.,4.8
1981-08-24 09:26:53.760 ,5,0,0.,4.8,0.,4.8,1.,4.8,1.,4.8
1981-08-24 09:26:58.560 ,5,0,0.,4.8,0.,4.8,0.,4.8,0.,4.8
1981-08-24 09:27:03.360 ,5,0,0.,4.8,1.,4.8,0.,4.8,0.,4.8
1981-08-24 09:27:08.160 ,5,0,0.,4.8,0.,4.8,0.,4.8,0.,4.8
1981-08-24 09:27:12.960 ,4,0,0.,4.8,2.,4.8,0.,4.8,0.,4.8
1981-08-24 09:27:17.760 ,4,0,0.,4.8,0.,4.8,2.,4.8,0.,4.8
1981-08-24 09:27:22.560 ,4,0,0.,4.8,1.,4.8,0.,4.8,0.,4.8
1981-08-24 09:27:27.360 ,4,0,0.,4.8,0.,4.8,0.,4.8,0.,4.8
1981-08-24 09:27:32.160 ,4,0,0.,4.8,1.,4.8,0.,4.8,0.,4.8
1981-08-24 09:27:36.960 ,4,0,0.,4.8,2.,4.8,0.,4.8,0.,4.8
1981-08-24 09:27:41.760 ,4,0,0.,4.8,0.,4.8,0.,4.8,0.,4.8
1981-08-24 09:27:46.560 ,4,0,0.,4.8,2.,4.8,0.,4.8,1.,4.8
1981-08-24 09:27:51.360 ,4,0,0.,4.8,0.,4.8,0.,4.8,0.,4.8
1981-08-24 09:27:56.160 ,4,0,0.,4.8,0.,4.8,0.,4.8,0.,4.8
1981-08-24 09:28:00.960 ,3,0,0.,4.8,2.,4.8,0.,4.8,0.,4.8
1981-08-24 09:28:05.760 ,3,0,0.,4.8,1.,4.8,0.,4.8,0.,4.8
1981-08-24 09:28:10.560 ,3,0,0.,4.8,3.,4.8,0.,4.8,0.,4.8
1981-08-24 09:28:15.360 ,3,0,0.,4.8,1.,4.8,0.,4.8,0.,4.8
1981-08-24 09:28:20.160 ,3,0,0.,4.8,0.,4.8,0.,4.8,0.,4.8
1981-08-24 09:28:24.960 ,3,0,0.,4.8,0.,4.8,0.,4.8,0.,4.8
1981-08-24 09:28:29.760 ,3,0,0.,4.8,0.,4.8,0.,4.8,0.,4.8
1981-08-24 09:28:34.560 ,3,0,0.,4.8,2.,4.8,0.,4.8,0.,4.8
1981-08-24 09:28:39.360 ,3,0,0.,4.8,0.,4.8,0.,4.8,0.,4.8
1981-08-24 09:28:44.160 ,3,0,0.,4.8,2.,4.8,1.,4.8,0.,4.8
1981-08-24 09:29:36.960 ,0,0,0.,4.8,1.,4.8,0.,4.8,0.,4.8
1981-08-24 09:29:41.760 ,0,0,0.,4.8,1.,4.8,0.,4.8,0.,4.8
1981-08-24 09:29:46.560 ,0,0,0.,4.8,0.,4.8,0.,4.8,0.,4.8
1981-08-24 09:29:51.360 ,0,0,0.,4.8,2.,4.8,0.,4.8,1.,4.8
1981-08-24 09:29:56.160 ,0,0,0.,4.8,1.,4.8,0.,4.8,0.,4.8
1981-08-24 09:30:00.960 ,0,0,0.,4.8,0.,4.8,0.,4.8,0.,4.8
1981-08-24 09:30:05.760 ,0,0,0.,4.8,2.,4.8,0.,4.8,0.,4.8
1981-08-24 09:30:10.560 ,0,0,0.,4.8,1.,4.8,0.,4.8,0.,4.8
1981-08-24 09:30:15.360 ,0,0,0.,4.8,3.,4.8,0.,4.8,0.,4.8
1981-08-24 09:30:20.160 ,0,0,0.,4.8,2.,4.8,0.,4.8,0.,4.8
1981-08-24 09:30:24.960 ,0,0,0.,4.8,0.,4.8,1.,4.8,0.,4.8
1981-08-24 09:30:29.760 ,0,0,0.,4.8,0.,4.8,0.,4.8,0.,4.8
1981-08-24 09:30:34.560 ,0,0,0.,4.8,6.,4.8,0.,4.8,1.,4.8
1981-08-24 09:30:39.360 ,0,0,0.,4.8,2.,4.8,1.,4.8,0.,4.8
1981-08-24 09:30:44.160 ,0,0,0.,4.8,1.,4.8,0.,4.8,0.,4.8
1981-08-24 09:30:48.960 ,0,0,0.,4.8,0.,4.8,0.,4.8,0.,4.8
1981-08-24 09:30:53.760 ,0,0,0.,4.8,2.,4.8,0.,4.8,0.,4.8
1981-08-24 09:30:58.560 ,0,0,0.,4.8,0.,4.8,0.,4.8,0.,4.8
1981-08-24 09:31:03.360 ,0,0,0.,4.8,0.,4.8,1.,4.8,0.,4.8
1981-08-24 09:31:08.160 ,0,0,0.,4.8,1.,4.8,0.,4.8,0.,4.8
1981-08-24 09:31:12.960 ,0,0,0.,4.8,1.,4.8,0.,4.8,1.,4.8
1981-08-24 09:31:17.760 ,0,0,0.,4.8,0.,4.8,0.,4.8,0.,4.8
1981-08-24 09:31:22.560 ,0,0,0.,4.8,2.,4.8,0.,4.8,0.,4.8
1981-08-24 09:31:27.360 ,0,0,0.,4.8,0.,4.8,0.,4.8,0.,4.8
1981-08-24 09:31:32.160 ,0,0,0.,4.8,2.,4.8,1.,4.8,0.,4.8
1981-08-24 09:31:36.960 ,0,0,0.,4.8,2.,4.8,0.,4.8,0.,4.8
1981-08-24 09:31:41.760 ,0,0,0.,4.8,0.,4.8,0.,4.8,0.,4.8
1981-08-24 09:31:46.560 ,0,0,0.,4.8,2.,4.8,0.,4.8,0.,4.8
1981-08-24 09:31:51.360 ,0,0,0.,4.8,4.,4.8,0.,4.8,0.,4.8
1981-08-24 09:31:56.160 ,0,0,0.,4.8,2.,4.8,1.,4.8,0.,4.8
1981-08-24 09:32:00.960 ,1,0,0.,4.8,3.,4.8,0.,4.8,0.,4.8
1981-08-24 09:32:05.760 ,1,0,0.,4.8,1.,4.8,0.,4.8,1.,4.8
1981-08-24 09:32:10.560 ,1,0,0.,4.8,0.,4.8,0.,4.8,0.,4.8
1981-08-24 09:32:15.360 ,1,0,0.,4.8,2.,4.8,0.,4.8,0.,4.8
1981-08-24 09:32:20.160 ,1,0,0.,4.8,0.,4.8,0.,4.8,0.,4.8
1981-08-24 09:32:24.960 ,1,0,0.,4.8,5.,4.8,0.,4.8,1.,4.8
1981-08-24 09:32:29.760 ,1,0,0.,4.8,0.,4.8,0.,4.8,0.,4.8
1981-08-24 09:32:34.560 ,1,0,0.,4.8,3.,4.8,1.,4.8,1.,4.8
1981-08-24 09:32:39.360 ,1,0,0.,4.8,1.,4.8,0.,4.8,0.,4.8
1981-08-24 09:32:44.160 ,1,0,0.,4.8,1.,4.8,1.,4.8,0.,4.8
1981-08-24 09:32:48.960 ,2,0,0.,4.8,1.,4.8,0.,4.8,0.,4.8
1981-08-24 09:32:53.760 ,2,0,0.,4.8,0.,4.8,0.,4.8,0.,4.8
1981-08-24 09:32:58.560 ,2,0,0.,4.8,1.,4.8,0.,4.8,0.,4.8
1981-08-24 09:33:03.360 ,2,0,0.,4.8,2.,4.8,1.,4.8,0.,4.8
1981-08-24 09:33:08.160 ,2,0,0.,4.8,3.,4.8,0.,4.8,0.,4.8
1981-08-24 09:33:12.960 ,2,0,0.,4.8,1.,4.8,0.,4.8,0.,4.8
1981-08-24 09:33:17.760 ,2,0,0.,4.8,2.,4.8,0.,4.8,0.,4.8
1981-08-24 09:33:22.560 ,2,0,0.,4.8,0.,4.8,1.,4.8,2.,4.8
1981-08-24 09:33:27.360 ,2,0,0.,4.8,1.,4.8,0.,4.8,0.,4.8
1981-08-24 09:33:32.160 ,2,0,0.,4.8,4.,4.8,0.,4.8,0.,4.8
1981-08-24 09:33:36.960 ,3,0,0.,4.8,2.,4.8,0.,4.8,0.,4.8
1981-08-24 09:33:41.760 ,3,0,0.,4.8,3.,4.8,1.,4.8,0.,4.8
1981-08-24 09:33:46.560 ,3,0,0.,4.8,1.,4.8,0.,4.8,0.,4.8
1981-08-24 09:33:51.360 ,3,0,0.,4.8,0.,4.8,0.,4.8,0.,4.8
1981-08-24 09:33:56.160 ,3,0,0.,4.8,0.,4.8,0.,4.8,0.,4.8
1981-08-24 09:34:00.960 ,3,0,0.,4.8,0.,4.8,0.,4.8,0.,4.8
1981-08-24 09:34:05.760 ,3,0,0.,4.8,0.,4.8,0.,4.8,0.,4.8
1981-08-24 09:34:10.560 ,3,0,0.,4.8,0.,4.8,0.,4.8,1.,4.8
1981-08-24 09:34:15.360 ,3,0,0.,4.8,0.,4.8,1.,4.8,0.,4.8
1981-08-24 09:34:20.160 ,3,0,0.,4.8,1.,4.8,0.,4.8,0.,4.8
1981-08-24 09:34:00.960 ,3,0,0.,4.8,0.,4.8,0.,4.8,0.,4.8
1981-08-24 09:34:05.760 ,3,0,0.,4.8,0.,4.8,0.,4.8,0.,4.8
1981-08-24 09:34:10.560 ,3,0,0.,4.8,0.,4.8,0.,4.8,1.,4.8
1981-08-24 09:34:15.360 ,3,0,0.,4.8,0.,4.8,1.,4.8,0.,4.8
1981-08-24 09:34:20.160 ,3,0,0.,4.8,1.,4.8,0.,4.8,0.,4.8
1981-08-24 09:34:24.960 ,4,0,0.,4.8,1.,4.8,0.,4.8,0.,4.8
1981-08-24 09:34:29.760 ,4,0,0.,4.8,1.,4.8,0.,4.8,0.,4.8
1981-08-24 09:34:34.560 ,4,0,0.,4.8,2.,4.8,0.,4.8,0.,4.8
1981-08-24 09:34:39.360 ,4,0,0.,4.8,1.,4.8,0.,4.8,0.,4.8
1981-08-24 09:34:44.160 ,4,0,0.,4.8,0.,4.8,0.,4.8,0.,4.8
1981-08-24 09:34:48.960 ,4,0,0.,4.8,0.,4.8,0.,4.8,0.,4.8
1981-08-24 09:34:53.760 ,4,0,0.,4.8,3.,4.8,0.,4.8,1.,4.8
1981-08-24 09:34:58.560 ,4,0,0.,4.8,1.,4.8,1.,4.8,0.,4.8
1981-08-24 09:35:03.360 ,4,0,0.,4.8,0.,4.8,1.,4.8,0.,4.8
1981-08-24 09:35:08.160 ,4,0,0.,4.8,0.,4.8,0.,4.8,0.,4.8
1981-08-24 09:35:12.960 ,5,0,0.,4.8,0.,4.8,0.,4.8,0.,4.8
1981-08-24 09:35:17.760 ,5,0,0.,4.8,1.,4.8,1.,4.8,0.,4.8
1981-08-24 09:35:22.560 ,5,0,0.,4.8,0.,4.8,0.,4.8,2.,4.8
1981-08-24 09:35:27.360 ,5,0,0.,4.8,0.,4.8,0.,4.8,1.,4.8
1981-08-24 09:35:32.160 ,5,0,0.,4.8,2.,4.8,0.,4.8,0.,4.8
1981-08-24 09:35:36.960 ,5,0,0.,4.8,1.,4.8,0.,4.8,0.,4.8
1981-08-24 09:35:41.760 ,5,0,0.,4.8,7.,4.8,1.,4.8,1.,4.8